This is the latest recevied weather packets stored in our database for station/object HP3ICC-24. If no packets are shown the sender has not sent any weather packets the latest 10 day(s).
| Time | Temp. | Humidity | Pressure | Rain* | Wind** | Luminosity | Snow |
|---|---|---|---|---|---|---|---|
| 1778082212 | 21.11° C | 73% | 1014 hPa | 0 mm | - | - | - |
| 1778081072 | 20.56° C | 78% | 1014 hPa | 0 mm | - | - | - |
| 1778081012 | 20.56° C | 78% | 1014 hPa | 0 mm | - | - | - |
| 1778079871 | 20.56° C | 79% | 1014 hPa | 0 mm | - | - | - |
| 1778079811 | 20.56° C | 79% | 1014 hPa | 0 mm | - | - | - |
| 1778078670 | 20.56° C | 81% | 1014 hPa | 0 mm | - | - | - |
| 1778078610 | 20.56° C | 81% | 1014 hPa | 0 mm | - | - | - |
| 1778077470 | 20.56° C | 81% | 1013 hPa | 0 mm | - | - | - |
| 1778077410 | 20.56° C | 81% | 1013 hPa | 0 mm | - | - | - |
| 1778076269 | 20° C | 83% | 1013 hPa | 0 mm | - | - | - |
| 1778076209 | 20° C | 83% | 1013 hPa | 0 mm | - | - | - |
| 1778075069 | 20° C | 81% | 1014 hPa | 0 mm | - | - | - |
| 1778075009 | 20° C | 81% | 1014 hPa | 0 mm | - | - | - |
| 1778073869 | 17.78° C | 87% | 1013 hPa | 0 mm | - | - | - |
| 1778073808 | 17.78° C | 87% | 1013 hPa | 0 mm | - | - | - |
| 1778072668 | 17.78° C | 89% | 1012 hPa | 0 mm | - | - | - |
| 1778072608 | 17.78° C | 89% | 1012 hPa | 0 mm | - | - | - |
| 1778071467 | 16.11° C | 88% | 1014 hPa | 0 mm | - | - | - |
| 1778071407 | 16.11° C | 88% | 1014 hPa | 0 mm | - | - | - |
| 1778070267 | 16.11° C | 90% | 1012 hPa | 0 mm | - | - | - |
| 1778070207 | 16.11° C | 90% | 1012 hPa | 0 mm | - | - | - |
| 1778069066 | 16.67° C | 90% | 1012 hPa | 0 mm | - | - | - |
| 1778069006 | 16.67° C | 90% | 1012 hPa | 0 mm | - | - | - |
| 1778067866 | 16.11° C | 79% | 1013 hPa | 0 mm | - | - | - |
| 1778067805 | 16.11° C | 79% | 1013 hPa | 0 mm | - | - | - |
* Rain latest hour (hover to see other rain measurements)
** Current wind speed in m/s (hover to see current wind gust speed)